This is the latest recevied weather packets stored in our database for station/object DG8SF-13. If no packets are shown the sender has not sent any weather packets the latest 10 day(s).
| Time | Temp. | Humidity | Pressure | Rain* | Wind** | Luminosity | Snow |
|---|---|---|---|---|---|---|---|
| 1777939852 | 9.44° C | 91% | 1010.7 hPa | 0 mm | - | - | - |
| 1777939542 | 10° C | 91% | 1010.8 hPa | 0 mm | - | - | - |
| 1777939231 | 10° C | 90% | 1010.8 hPa | 0 mm | - | - | - |
| 1777938918 | 10° C | 88% | 1010.9 hPa | 0 mm | - | - | - |
| 1777938607 | 10.56° C | 87% | 1010.9 hPa | 0 mm | - | - | - |
| 1777938296 | 11.11° C | 87% | 1010.9 hPa | 0 mm | - | - | - |
| 1777937981 | 11.11° C | 84% | 1010.9 hPa | 0 mm | - | - | - |
| 1777937670 | 11.11° C | 85% | 1010.8 hPa | 0 mm | - | - | - |
| 1777937357 | 11.67° C | 85% | 1010.9 hPa | 0 mm | - | - | - |
| 1777937050 | 11.67° C | 84% | 1010.8 hPa | 0 mm | - | - | - |
| 1777936734 | 12.22° C | 83% | 1010.8 hPa | 0 mm | - | - | - |
| 1777936423 | 12.22° C | 83% | 1010.8 hPa | 0 mm | - | - | - |
| 1777936108 | 12.22° C | 81% | 1010.7 hPa | 0 mm | - | - | - |
| 1777935799 | 12.22° C | 82% | 1010.7 hPa | 0 mm | - | - | - |
| 1777935485 | 12.22° C | 80% | 1010.7 hPa | 0 mm | - | - | - |
| 1777935173 | 12.22° C | 81% | 1010.8 hPa | 0 mm | - | - | - |
| 1777934862 | 12.22° C | 84% | 1010.9 hPa | 0 mm | - | - | - |
| 1777934551 | 12.22° C | 82% | 1010.8 hPa | 0 mm | - | - | - |
| 1777934239 | 12.22° C | 81% | 1010.8 hPa | 0 mm | - | - | - |
| 1777933925 | 12.22° C | 80% | 1010.9 hPa | 0 mm | - | - | - |
| 1777933614 | 12.22° C | 79% | 1010.9 hPa | 0 mm | - | - | - |
| 1777933302 | 12.22° C | 82% | 1011 hPa | 0 mm | - | - | - |
| 1777932992 | 12.78° C | 79% | 1011 hPa | 0 mm | - | - | - |
| 1777932680 | 12.78° C | 78% | 1010.9 hPa | 0 mm | - | - | - |
| 1777932366 | 13.33° C | 76% | 1011.2 hPa | 0 mm | - | - | - |
* Rain latest hour (hover to see other rain measurements)
** Current wind speed in m/s (hover to see current wind gust speed)